Location: Sternwarte ZA, Rosenfeld-Brittheim
(48.2889°N, 8.6789°E)
Time: 19:57:00

ISS - Pass Details

Date: 18 March 2018
Orbit: 403 x 406 km, 51.6° (Epoch: 23 March)

Event Time Altitude Azimuth Distance (km) Brightness Sun altitude
Exits shadow 05:05:23 34° 231° (SW) 695 -3.2 -15.2°
Maximum altitude 05:05:46 35° 214° (SW) 674 -3.1 -15.1°
Drops below altitude 10° 05:08:47 10° 147° (SSE) 1,458 -0.8 -14.7°
Sets 05:10:57 0° 138° (SE) 2,314 0.4 -14.3°
